Location: Ch?enovice
(49.7164°N, 15.2160°E)
Time: 12:15:59
(UTC+00:00)

USA 267 - Pass Details

Date: 13 November 2025
Orbit: 1100 x 1108 km, 123.0° (Epoch: 21 November)

Event Time Altitude Azimuth Distance (km) Brightness Sun altitude
Rises 03:01:52 0° 56° (NE) 3,924 7.1 -30.0°
Reaches altitude 10° 03:04:23 10° 59° (ENE) 2,963 6.3 -29.6°
Maximum altitude 03:10:54 65° 141° (SE) 1,198 3.4 -28.5°
Enters shadow 03:12:47 46° 202° (SSW) 1,434 3.6 -28.2°
